Location: Unspecified
(41.5000°N, 0.0000°E)
Time: 04:53:28
(UTC+00:00)

Vanguard 2 - Pass Details

Date: 27 June 2019
Orbit: 553 x 2938 km, 32.9° (Epoch: 23 July)

Event Time Altitude Azimuth Distance (km) Brightness Sun altitude
Rises 13:36:40 0° 258° (WSW) 4,471 11.8 63.3°
Reaches altitude 10° 13:42:05 10° 230° (SW) 4,040 11.8 62.5°
Maximum altitude 13:45:56 12° 209° (SSW) 4,202 11.9 61.9°
Drops below altitude 10° 13:50:21 10° 189° (S) 4,764 12.0 61.2°
Sets 13:58:33 0° 166° (SSE) 6,318 12.3 59.8°
